Princeton, MN

3:18 AM CST on November 13, 2019 (GMT -0600)
Princeton Municipal

Weather History for KPNM - August, 2019

Change the Weather History Date:

Friday, August 16, 2019

  Actual Average Record
Temperature  
Mean Temperature 71 °F -  
Max Temperature 82 °F 76 °F 91 °F (2003)
Min Temperature 60 °F 54 °F 48 °F (2012)
Cooling Degree Days 6    
Growing Degree Days 21 (Base 50)    
Moisture  
Dew Point 61 °F    
Average Humidity 77    
Maximum Humidity 100    
Minimum Humidity 45    
Precipitation  
Precipitation 0.00 in - - ()
Sea Level Pressure  
Sea Level Pressure 29.82 in    
Wind  
Wind Speed 3 mph (West)    
Max Wind Speed 12 mph    
Max Gust Speed 16 mph    
Visibility 10 miles    
Events Rain    
Averages and records for this station are not official NWS values.
T = Trace of Precipitation, MM = Missing Value Source: NWS Daily Summary

Daily Weather History Graph

Daily Weather History Graph

Search for Another Location

Airport or City:

Astronomy

Aug. 16, 2019 Rise Set
Actual Time 6:15 AM CDT 8:20 PM CDT
Civil Twilight 5:43 AM CDT 8:52 PM CDT
Nautical Twilight 5:03 AM CDT 9:32 PM CDT
Astronomical Twilight 4:19 AM CDT 10:16 PM CDT
Moon 9:18 PM CDT (8/16) 7:08 AM CDT (8/16)
Length of Visible Light 15h 09m
Length of Day
14h 04m
Full, 99% of the Moon is Illuminated
Aug 16
Full
Aug 23
Last Quarter
Aug 30
New
Sep 5
First Quarter
Sep 13
Full

Hourly Weather History & Observations

Time (CDT) Temp. Heat Index Dew Point Humidity Pressure Visibility Wind Dir Wind Speed Gust Speed Precip Events Conditions
12:15 AM 62.6 °F - 60.8 °F 94% 29.84 in 10.0 mi ESE 3.5 mph - N/A   Overcast
12:35 AM 62.6 °F - 60.8 °F 94% 29.83 in 10.0 mi Calm Calm - N/A   Overcast
12:40 AM 62.6 °F - 60.8 °F 94% 29.83 in 10.0 mi Calm Calm - N/A   Overcast
12:58 AM 62.6 °F - 60.8 °F 94% 29.81 in 10.0 mi Calm Calm - N/A   Overcast
1:16 AM 62.6 °F - 60.8 °F 94% 29.82 in 10.0 mi Calm Calm - N/A   Overcast
1:35 AM 62.6 °F - 60.8 °F 94% 29.82 in 10.0 mi Calm Calm - N/A Rain Light Rain
1:55 AM 62.6 °F - 60.8 °F 94% 29.83 in 10.0 mi Calm Calm - N/A   Overcast
2:19 AM 62.6 °F - 60.8 °F 94% 29.81 in 10.0 mi North 3.5 mph - N/A   Overcast
2:37 AM 62.6 °F - 60.8 °F 94% 29.80 in 10.0 mi North 3.5 mph - N/A   Overcast
2:55 AM 62.6 °F - 60.8 °F 94% 29.79 in 1.8 mi Calm Calm - N/A Rain Heavy Rain
2:56 AM 62.6 °F - 60.8 °F 94% 29.79 in 1.8 mi Calm Calm - N/A Rain Heavy Rain
3:15 AM 62.6 °F - 60.8 °F 94% 29.79 in 10.0 mi Calm Calm - N/A Rain Rain
3:35 AM 62.6 °F - 60.8 °F 94% 29.78 in 10.0 mi East 3.5 mph - N/A Rain Light Rain
3:58 AM 60.8 °F - 60.8 °F 100% 29.79 in 10.0 mi Calm Calm - N/A   Mostly Cloudy
4:15 AM 60.8 °F - 60.8 °F 100% 29.79 in 10.0 mi Calm Calm - N/A   Overcast
4:35 AM 62.6 °F - 60.8 °F 94% 29.79 in 10.0 mi Calm Calm - N/A   Overcast
4:55 AM 60.8 °F - 60.8 °F 100% 29.79 in 7.0 mi Calm Calm - N/A   Mostly Cloudy
5:19 AM 60.8 °F - 60.8 °F 100% 29.78 in 10.0 mi Calm Calm - N/A   Mostly Cloudy
5:37 AM 60.8 °F - 60.8 °F 100% 29.78 in 10.0 mi Calm Calm - N/A   Overcast
5:56 AM 60.8 °F - 60.8 °F 100% 29.79 in 10.0 mi SW 4.6 mph - N/A   Overcast
6:15 AM 60.8 °F - 60.8 °F 100% 29.80 in 10.0 mi West 8.1 mph - N/A   Mostly Cloudy
6:35 AM 60.8 °F - 60.8 °F 100% 29.81 in 10.0 mi West 4.6 mph - N/A   Overcast
6:58 AM 60.8 °F - 60.8 °F 100% 29.82 in 10.0 mi West 4.6 mph - N/A   Overcast
7:16 AM 60.8 °F - 60.8 °F 100% 29.81 in 10.0 mi WNW 3.5 mph - N/A   Mostly Cloudy
7:35 AM 62.6 °F - 60.8 °F 94% 29.81 in 10.0 mi West 4.6 mph - N/A   Scattered Clouds
7:55 AM 64.4 °F - 62.6 °F 94% 29.82 in 10.0 mi WNW 6.9 mph - N/A   Mostly Cloudy
7:56 AM 64.4 °F - 62.6 °F 94% 29.82 in 10.0 mi WNW 6.9 mph - N/A   Mostly Cloudy
8:19 AM 62.6 °F - 60.8 °F 94% 29.81 in 10.0 mi Calm Calm - N/A   Overcast
8:37 AM 62.6 °F - 62.6 °F 100% 29.82 in 10.0 mi Calm Calm - N/A   Overcast
8:55 AM 64.4 °F - 62.6 °F 94% 29.82 in 10.0 mi Calm Calm - N/A   Overcast
9:15 AM 64.4 °F - 62.6 °F 94% 29.82 in 10.0 mi WNW 5.8 mph - N/A   Overcast
9:35 AM 64.4 °F - 62.6 °F 94% 29.82 in 10.0 mi Calm Calm - N/A   Overcast
9:58 AM 66.2 °F - 62.6 °F 88% 29.82 in 10.0 mi West 5.8 mph - N/A   Overcast
10:16 AM 66.2 °F - 62.6 °F 88% 29.83 in 10.0 mi WSW 3.5 mph - N/A   Overcast
10:35 AM 69.8 °F - 62.6 °F 78% 29.84 in 10.0 mi Calm Calm - N/A   Overcast
10:55 AM 71.6 °F - 62.6 °F 73% 29.84 in 10.0 mi Calm Calm - N/A   Mostly Cloudy
11:19 AM 73.4 °F - 62.6 °F 69% 29.84 in 10.0 mi West 5.8 mph - N/A   Scattered Clouds
11:37 AM 73.4 °F - 62.6 °F 69% 29.84 in 10.0 mi WSW 3.5 mph - N/A   Scattered Clouds
11:55 AM 73.4 °F - 62.6 °F 69% 29.84 in 10.0 mi WSW 4.6 mph - N/A   Scattered Clouds
12:15 PM 73.4 °F - 62.6 °F 69% 29.84 in 10.0 mi WSW 5.8 mph - N/A   Scattered Clouds
12:35 PM 75.2 °F - 60.8 °F 61% 29.83 in 10.0 mi West 6.9 mph - N/A   Scattered Clouds
12:58 PM 77.0 °F - 60.8 °F 57% 29.83 in 10.0 mi WSW 3.5 mph - N/A   Scattered Clouds
1:15 PM 75.2 °F - 60.8 °F 61% 29.83 in 10.0 mi West 6.9 mph - N/A   Scattered Clouds
1:35 PM 77.0 °F - 60.8 °F 57% 29.83 in 10.0 mi West 6.9 mph - N/A   Scattered Clouds
1:55 PM 78.8 °F - 59.0 °F 51% 29.82 in 10.0 mi WNW 8.1 mph - N/A   Clear
1:56 PM 78.8 °F - 59.0 °F 51% 29.82 in 10.0 mi WNW 8.1 mph - N/A   Clear
2:19 PM 78.8 °F - 60.8 °F 54% 29.82 in 10.0 mi West 11.5 mph - N/A   Clear
2:37 PM 80.6 °F 80.8 °F 57.2 °F 45% 29.83 in 10.0 mi West 9.2 mph - N/A   Clear
2:55 PM 80.6 °F 81.1 °F 59.0 °F 48% 29.82 in 10.0 mi WSW 9.2 mph - N/A   Clear
2:56 PM 80.6 °F 81.1 °F 59.0 °F 48% 29.82 in 10.0 mi WSW 10.4 mph - N/A   Clear
3:15 PM 80.6 °F 81.1 °F 59.0 °F 48% 29.82 in 10.0 mi West 5.8 mph - N/A   Clear
3:16 PM 78.8 °F - 59.0 °F 51% 29.82 in 10.0 mi West 6.9 mph - N/A   Clear
3:35 PM 80.6 °F 80.8 °F 57.2 °F 45% 29.82 in 10.0 mi WNW 9.2 mph - N/A   Clear
3:58 PM 80.6 °F 81.1 °F 59.0 °F 48% 29.82 in 10.0 mi WSW 6.9 mph 16.1 mph N/A   Clear
4:16 PM 82.4 °F 82.9 °F 60.8 °F 48% 29.81 in 10.0 mi WSW 8.1 mph - N/A   Scattered Clouds
4:35 PM 80.6 °F 81.5 °F 60.8 °F 51% 29.81 in 10.0 mi WSW 9.2 mph - N/A   Clear
4:36 PM 80.6 °F 81.5 °F 60.8 °F 51% 29.81 in 10.0 mi WSW 9.2 mph - N/A   Clear
4:55 PM 80.6 °F 81.5 °F 60.8 °F 51% 29.81 in 10.0 mi WSW 4.6 mph - N/A   Clear
4:56 PM 80.6 °F 81.5 °F 60.8 °F 51% 29.81 in 10.0 mi WSW 6.9 mph - N/A   Clear
5:19 PM 78.8 °F - 60.8 °F 54% 29.80 in 10.0 mi WNW 4.6 mph - N/A   Scattered Clouds
5:37 PM 80.6 °F 81.5 °F 60.8 °F 51% 29.80 in 10.0 mi WNW 3.5 mph - N/A   Clear
5:55 PM 80.6 °F 81.5 °F 60.8 °F 51% 29.80 in 10.0 mi West 6.9 mph - N/A   Clear
6:15 PM 80.6 °F 81.5 °F 60.8 °F 51% 29.80 in 7.0 mi West 5.8 mph - N/A   Clear
6:16 PM 80.6 °F 81.5 °F 60.8 °F 51% 29.80 in 7.0 mi WSW 5.8 mph - N/A   Clear
6:35 PM 78.8 °F - 60.8 °F 54% 29.80 in 10.0 mi West 5.8 mph - N/A   Clear
6:40 PM 78.8 °F - 60.8 °F 54% 29.80 in 10.0 mi West 3.5 mph - N/A   Clear
6:58 PM 78.8 °F - 62.6 °F 57% - 10.0 mi Calm Calm - N/A   Clear
7:16 PM 78.8 °F - 62.6 °F 57% 29.81 in 10.0 mi WSW 3.5 mph - N/A   Clear
7:35 PM 77.0 °F - 62.6 °F 61% 29.81 in 10.0 mi Calm Calm - N/A   Clear
7:36 PM 77.0 °F - 62.6 °F 61% 29.81 in 10.0 mi Calm Calm - N/A   Clear
7:55 PM 73.4 °F - 64.4 °F 73% 29.81 in 10.0 mi Calm Calm - N/A   Clear
7:56 PM 73.4 °F - 64.4 °F 73% 29.81 in 10.0 mi Calm Calm - N/A   Clear
8:19 PM 71.6 °F - 64.4 °F 78% 29.81 in 10.0 mi Calm Calm - N/A   Clear
8:37 PM 71.6 °F - 64.4 °F 78% 29.82 in 10.0 mi Calm Calm - N/A   Clear
8:55 PM 69.8 °F - 62.6 °F 78% 29.82 in 10.0 mi Calm Calm - N/A   Clear
9:15 PM 68.0 °F - 62.6 °F 83% 29.83 in 10.0 mi Calm Calm - N/A   Clear
9:16 PM 68.0 °F - 62.6 °F 83% 29.83 in 10.0 mi Calm Calm - N/A   Clear
9:35 PM 66.2 °F - 62.6 °F 88% 29.83 in 10.0 mi Calm Calm - N/A   Clear
9:40 PM 66.2 °F - 62.6 °F 88% 29.84 in 10.0 mi Calm Calm - N/A   Clear
9:58 PM 66.2 °F - 62.6 °F 88% 29.84 in 10.0 mi Calm Calm - N/A   Clear
10:16 PM 66.2 °F - 62.6 °F 88% 29.84 in 10.0 mi Calm Calm - N/A   Clear
10:35 PM 66.2 °F - 62.6 °F 88% 29.84 in 10.0 mi Calm Calm - N/A   Clear
10:36 PM 66.2 °F - 62.6 °F 88% 29.84 in 10.0 mi Calm Calm - N/A   Clear
10:55 PM 64.4 °F - 60.8 °F 88% 29.84 in 10.0 mi Calm Calm - N/A   Clear
10:56 PM 64.4 °F - 60.8 °F 88% 29.84 in 10.0 mi Calm Calm - N/A   Clear
11:19 PM 64.4 °F - 62.6 °F 94% 29.84 in 10.0 mi Calm Calm - N/A   Clear
11:37 PM 64.4 °F - 62.6 °F 94% 29.84 in 10.0 mi Calm Calm - N/A   Clear
11:55 PM 64.4 °F - 60.8 °F 88% 29.85 in 10.0 mi Calm Calm - N/A   Clear
11:56 PM 64.4 °F - 60.8 °F 88% 29.85 in 10.0 mi Calm Calm - N/A   Clear